KC7KGF Weather Reports


time (UTC)temp
C
wind
direction
speed
KPH
gust
KPH
rain 1hr
cm
rain 24hr
cm
rain mn
cm
humidity
%
barometer
mb
20260507113533 5 104 0.0 0.0 0.00 0.00 0.00 54 1021.5
20260507110532 3 98 0.0 0.0 0.00 0.00 0.00 66 1021.6
20260507103543 2 113 0.0 0.0 0.00 0.00 0.00 74 1021.5
20260507100547 2 193 0.0 0.0 0.00 0.00 0.00 75 1021.7
20260507093539 3 193 0.0 0.0 0.00 0.00 0.00 73 1021.8
20260507090542 3 193 0.0 0.0 0.00 0.00 0.00 72 1021.9
20260507083542 3 193 0.0 0.0 0.00 0.00 0.00 71 1022.0
20260507080544 3 261 0.0 0.0 0.00 0.00 0.00 69 1022.2
20260507073544 5 261 0.0 0.0 0.00 0.00 0.00 66 1022.4
20260507070528 6 261 0.0 0.0 0.00 0.00 0.00 62 1022.5
20260507063539 7 261 0.0 0.0 0.00 0.00 0.00 58 1022.0
20260507060527 8 261 0.0 0.0 0.00 0.00 0.00 54 1021.8
20260507053538 10 261 0.0 0.0 0.00 0.00 0.00 49 1021.3
20260507050541 11 261 0.0 0.0 0.00 0.00 0.00 45 1021.4
20260507043533 13 261 0.0 0.0 0.00 0.00 0.00 40 1021.2
20260507040527 14 261 0.0 0.0 0.00 0.00 0.00 38 1020.8
20260507033539 15 247 1.6 14.5 0.00 0.00 0.00 37 1020.4
20260507030545 15 240 8.0 14.5 0.00 0.00 0.00 36 1019.7
20260507023535 16 240 0.0 8.0 0.00 0.00 0.00 34 1019.4
20260507020538 17 253 1.6 12.9 0.00 0.00 0.00 31 1018.9
20260507013530 18 267 4.8 11.3 0.00 0.00 0.00 29 1018.6
20260507010534 20 264 0.0 4.8 0.00 0.00 0.00 27 1018.5
20260507003525 21 244 0.0 16.1 0.00 0.00 0.00 26 1018.3
20260507000525 21 238 0.0 16.1 0.00 0.00 0.00 25 1018.3
20260506233536 22 232 1.6 11.3 0.00 0.00 0.00 24 1018.1
20260506230529 21 252 1.6 25.7 0.00 0.00 0.00 25 1018.3
20260506223540 22 244 6.4 16.1 0.00 0.00 0.00 25 1018.5
20260506220543 21 232 4.8 22.5 0.00 0.00 0.00 27 1018.5
20260506213544 21 281 0.0 19.3 0.00 0.03 0.00 26 1018.8
20260506210548 21 235 3.2 14.5 0.00 0.03 0.00 28 1019.0
20260506203544 20 257 0.0 14.5 0.00 0.05 0.00 28 1019.3
20260506200528 20 261 8.0 22.5 0.00 0.05 0.00 30 1019.4
20260506193533 18 205 4.8 19.3 0.00 0.05 0.00 32 1019.5
20260506190534 18 232 3.2 16.1 0.00 0.05 0.00 32 1019.8
20260506183535 17 228 0.0 19.3 0.00 0.05 0.00 34 1020.1
20260506180552 17 232 3.2 12.9 0.00 0.05 0.00 31 1020.3
20260506173530 15 234 8.0 17.7 0.00 0.13 0.00 34 1020.5
20260506170534 15 254 3.2 17.7 0.00 0.13 0.00 36 1020.3
20260506163545 13 241 8.0 17.7 0.00 0.28 0.00 39 1020.1
20260506160531 13 235 4.8 14.5 0.00 0.28 0.00 44 1020.1
20260506153544 12 233 3.2 16.1 0.00 0.28 0.00 48 1020.1
20260506150529 11 152 0.0 0.0 0.00 0.28 0.00 54 1019.9
20260506143544 7 154 0.0 0.0 0.00 0.28 0.00 75 1019.9
20260506140528 3 154 0.0 0.0 0.00 0.28 0.00 94 1020.1
20260506133544 0 157 0.0 0.0 0.00 0.28 0.00 94 1019.7
20260506130532 -1 250 0.0 0.0 0.00 0.28 0.00 92 1019.4
20260506123527 -2 250 0.0 0.0 0.00 0.28 0.00 91 1019.0
20260506120534 -2 250 0.0 0.0 0.00 0.28 0.00 90 1018.6